York, NE

10:05 AM CST on December 13, 2019 (GMT -0600)
York Municipal

Weather History for KJYR - October, 2019

Change the Weather History Date:

Tuesday, October 8, 2019

  Actual Average Record
Temperature  
Mean Temperature 58 °F -  
Max Temperature 71 °F 68 °F 93 °F (2010)
Min Temperature 46 °F 43 °F 28 °F (1952)
Degree Days  
Heating Degree Days 6    
Growing Degree Days 8 (Base 50)    
Moisture  
Dew Point 43 °F    
Average Humidity 58    
Maximum Humidity 81    
Minimum Humidity 37    
Precipitation  
Precipitation 0.00 in - - ()
Sea Level Pressure  
Sea Level Pressure 29.95 in    
Wind  
Wind Speed 13 mph (South)    
Max Wind Speed 25 mph    
Max Gust Speed 32 mph    
Visibility 10 miles    
Events      
Averages and records for this station are not official NWS values.
T = Trace of Precipitation, MM = Missing Value Source: NWS Daily Summary

Daily Weather History Graph

Daily Weather History Graph

Search for Another Location

Airport or City:

Astronomy

Oct. 08, 2019 Rise Set
Actual Time 7:34 AM CDT 7:01 PM CDT
Civil Twilight 7:06 AM CDT 7:28 PM CDT
Nautical Twilight 6:34 AM CDT 8:00 PM CDT
Astronomical Twilight 6:02 AM CDT 8:32 PM CDT
Moon 5:03 PM CDT (10/8) 2:21 AM CDT (10/8)
Length of Visible Light 12h 22m
Length of Day
11h 27m
Waxing Gibbous, 78% of the Moon is Illuminated
Oct 8
Waxing Gibbous
Oct 13
Full
Oct 21
Last Quarter
Oct 27
New
Nov 4
First Quarter

Hourly Weather History & Observations

Time (CDT) Temp. Windchill Dew Point Humidity Pressure Visibility Wind Dir Wind Speed Gust Speed Precip Events Conditions
12:15 AM 53.6 °F - 39.2 °F 58% 30.09 in 10.0 mi SSW 10.4 mph - N/A   Clear
12:35 AM 53.6 °F - 39.2 °F 58% 30.08 in 10.0 mi SSW 11.5 mph 17.3 mph N/A   Clear
12:55 AM 51.8 °F - 39.2 °F 62% 30.08 in 10.0 mi South 10.4 mph - N/A   Clear
1:15 AM 50.0 °F - 39.2 °F 66% 30.07 in 10.0 mi South 9.2 mph - N/A   Clear
1:35 AM 50.0 °F - 39.2 °F 66% 30.07 in 10.0 mi South 9.2 mph - N/A   Clear
1:55 AM 50.0 °F - 39.2 °F 66% 30.07 in 10.0 mi SSW 10.4 mph - N/A   Clear
2:15 AM 50.0 °F - 39.2 °F 66% 30.07 in 10.0 mi South 10.4 mph - N/A   Clear
2:35 AM 50.0 °F - 39.2 °F 66% 30.07 in 10.0 mi South 9.2 mph - N/A   Clear
2:55 AM 48.2 °F - 39.2 °F 71% 30.07 in 10.0 mi South 9.2 mph - N/A   Clear
3:15 AM 48.2 °F - 41.0 °F 76% 30.06 in 10.0 mi South 9.2 mph - N/A   Clear
3:35 AM 48.2 °F - 41.0 °F 76% 30.05 in 10.0 mi South 9.2 mph - N/A   Clear
3:55 AM 48.2 °F - 41.0 °F 76% 30.05 in 10.0 mi South 10.4 mph - N/A   Clear
4:10 AM 48.2 °F - 41.0 °F 76% 30.04 in 10.0 mi South 9.2 mph - N/A   Clear
4:35 AM 46.4 °F 41.1 °F 41.0 °F 81% 30.04 in 10.0 mi South 11.5 mph - N/A   Clear
4:55 AM 46.4 °F 42.4 °F 41.0 °F 81% 30.04 in 10.0 mi South 8.1 mph - N/A   Clear
5:15 AM 46.4 °F 41.5 °F 41.0 °F 81% 30.03 in 10.0 mi South 10.4 mph - N/A   Clear
5:35 AM 46.4 °F 40.7 °F 41.0 °F 81% 30.03 in 10.0 mi South 12.7 mph - N/A   Clear
5:55 AM 46.4 °F 41.1 °F 41.0 °F 81% 30.03 in 10.0 mi South 11.5 mph - N/A   Clear
6:15 AM 48.2 °F - 41.0 °F 76% 30.03 in 10.0 mi South 11.5 mph - N/A   Clear
6:35 AM 48.2 °F - 41.0 °F 76% 30.02 in 10.0 mi South 12.7 mph - N/A   Clear
6:55 AM 48.2 °F - 41.0 °F 76% 30.02 in 10.0 mi South 13.8 mph 19.6 mph N/A   Clear
7:15 AM 48.2 °F - 41.0 °F 76% 30.01 in 10.0 mi South 13.8 mph - N/A   Clear
7:35 AM 48.2 °F - 41.0 °F 76% 30.01 in 10.0 mi South 13.8 mph - N/A   Clear
7:55 AM 48.2 °F - 41.0 °F 76% 30.01 in 10.0 mi South 13.8 mph 19.6 mph N/A   Clear
8:15 AM 50.0 °F - 41.0 °F 71% 30.01 in 10.0 mi South 13.8 mph - N/A   Clear
8:35 AM 50.0 °F - 41.0 °F 71% 30.00 in 10.0 mi South 15.0 mph 21.9 mph N/A   Clear
8:55 AM 51.8 °F - 41.0 °F 67% 30.00 in 10.0 mi South 17.3 mph 23.0 mph N/A   Clear
9:15 AM 53.6 °F - 42.8 °F 67% 29.99 in 10.0 mi South 16.1 mph 25.3 mph N/A   Clear
9:35 AM 55.4 °F - 42.8 °F 63% 29.99 in 10.0 mi South 18.4 mph 26.5 mph N/A   Clear
9:55 AM 57.2 °F - 41.0 °F 55% 29.99 in 10.0 mi South 24.2 mph 31.1 mph N/A   Clear
10:15 AM 59.0 °F - 41.0 °F 51% 29.99 in 10.0 mi South 25.3 mph 31.1 mph N/A   Clear
10:35 AM 60.8 °F - 41.0 °F 48% 29.98 in 10.0 mi South 21.9 mph 31.1 mph N/A   Clear
10:55 AM 62.6 °F - 41.0 °F 45% 29.98 in 10.0 mi South 24.2 mph 31.1 mph N/A   Clear
11:15 AM 62.6 °F - 41.0 °F 45% 29.97 in 10.0 mi South 19.6 mph 29.9 mph N/A   Clear
11:35 AM 64.4 °F - 41.0 °F 42% 29.96 in 10.0 mi SSW 20.7 mph 28.8 mph N/A   Clear
11:55 AM 66.2 °F - 41.0 °F 40% 29.96 in 10.0 mi South 18.4 mph 32.2 mph N/A   Clear
12:15 PM 66.2 °F - 41.0 °F 40% 29.95 in 10.0 mi South 20.7 mph 32.2 mph N/A   Clear
12:35 PM 68.0 °F - 41.0 °F 37% 29.94 in 10.0 mi South 21.9 mph 28.8 mph N/A   Clear
12:55 PM 68.0 °F - 42.8 °F 40% 29.93 in 10.0 mi South 19.6 mph 29.9 mph N/A   Clear
1:15 PM 68.0 °F - 41.0 °F 37% 29.93 in 10.0 mi South 23.0 mph 29.9 mph N/A   Clear
1:35 PM 68.0 °F - 42.8 °F 40% 29.91 in 10.0 mi South 24.2 mph 28.8 mph N/A   Clear
1:55 PM 69.8 °F - 44.6 °F 40% 29.90 in 10.0 mi South 16.1 mph 27.6 mph N/A   Clear
2:15 PM 69.8 °F - 44.6 °F 40% 29.89 in 10.0 mi SSW 19.6 mph 27.6 mph N/A   Clear
2:35 PM 69.8 °F - 44.6 °F 40% 29.88 in 10.0 mi South 19.6 mph 28.8 mph N/A   Clear
2:55 PM 71.6 °F - 44.6 °F 38% 29.87 in 10.0 mi South 16.1 mph 25.3 mph N/A   Clear
3:15 PM 71.6 °F - 44.6 °F 38% 29.87 in 10.0 mi South 21.9 mph 28.8 mph N/A   Clear
3:35 PM 71.6 °F - 44.6 °F 38% 29.86 in 10.0 mi South 17.3 mph 27.6 mph N/A   Clear
3:55 PM 71.6 °F - 44.6 °F 38% 29.86 in 10.0 mi South 17.3 mph 26.5 mph N/A   Clear
4:15 PM 71.6 °F - 44.6 °F 38% 29.85 in 10.0 mi South 24.2 mph - N/A   Clear
4:35 PM 71.6 °F - 44.6 °F 38% 29.85 in 10.0 mi South 21.9 mph - N/A   Clear
4:55 PM 71.6 °F - 46.4 °F 41% 29.85 in 10.0 mi South 21.9 mph 27.6 mph N/A   Clear
5:15 PM 71.6 °F - 44.6 °F 38% 29.85 in 10.0 mi South 18.4 mph 27.6 mph N/A   Clear
5:35 PM 69.8 °F - 46.4 °F 43% 29.85 in 10.0 mi South 19.6 mph 24.2 mph N/A   Clear
5:55 PM 68.0 °F - 44.6 °F 43% 29.85 in 10.0 mi South 16.1 mph 26.5 mph N/A   Clear
6:15 PM 68.0 °F - 46.4 °F 46% 29.85 in 10.0 mi South 13.8 mph 21.9 mph N/A   Clear
6:35 PM 66.2 °F - 46.4 °F 49% 29.86 in 10.0 mi South 12.7 mph - N/A   Clear
6:55 PM 66.2 °F - 46.4 °F 49% 29.86 in 10.0 mi South 11.5 mph - N/A   Clear
7:15 PM 64.4 °F - 46.4 °F 52% 29.86 in 10.0 mi South 12.7 mph - N/A   Clear
7:35 PM 64.4 °F - 46.4 °F 52% 29.86 in 10.0 mi South 15.0 mph 20.7 mph N/A   Clear
7:55 PM 62.6 °F - 46.4 °F 55% 29.87 in 10.0 mi South 11.5 mph - N/A   Clear
8:15 PM 62.6 °F - 46.4 °F 55% 29.88 in 10.0 mi SSE 11.5 mph - N/A   Clear
8:35 PM 60.8 °F - 46.4 °F 59% 29.88 in 10.0 mi SSE 10.4 mph - N/A   Clear
8:55 PM 60.8 °F - 46.4 °F 59% 29.87 in 10.0 mi SSE 10.4 mph - N/A   Clear
9:15 PM 59.0 °F - 46.4 °F 63% 29.87 in 10.0 mi SSE 11.5 mph - N/A   Clear
9:35 PM 59.0 °F - 46.4 °F 63% 29.87 in 10.0 mi South 12.7 mph - N/A   Clear
9:55 PM 59.0 °F - 46.4 °F 63% 29.87 in 10.0 mi South 12.7 mph - N/A   Clear
10:15 PM 59.0 °F - 46.4 °F 63% 29.87 in 10.0 mi South 12.7 mph 20.7 mph N/A   Clear
10:35 PM 59.0 °F - 46.4 °F 63% 29.86 in 10.0 mi South 15.0 mph 18.4 mph N/A   Clear
10:55 PM 59.0 °F - 46.4 °F 63% 29.87 in 10.0 mi South 10.4 mph 17.3 mph N/A   Clear
11:15 PM 59.0 °F - 48.2 °F 67% 29.86 in 10.0 mi South 12.7 mph - N/A   Clear
11:35 PM 59.0 °F - 48.2 °F 67% 29.86 in 10.0 mi South 13.8 mph - N/A   Clear
11:55 PM 59.0 °F - 48.2 °F 67% 29.86 in 10.0 mi South 11.5 mph - N/A   Clear